User: anonymous   Login
Location: ??
(34.9170°N, 135.5016°E)
Time: 08:39:44
(UTC+00:00)
Language:

CZ-4 DEB - Orbit

View from above orbital plane
View from above orbital plane
View from above satellite
View from above satellite

Ground track
Ground track

The orbit data is extracted from the following two-line orbital elements,

1 35380U 03049G   21130.35811216  .00004783  00000-0  36121-3 0  9997
2 35380  98.0906 281.0185 0025449  60.4608 299.9148 15.02658317803614
Epoch (UTC): 10 May 2021 08:35:40
Eccentricity: 0.0025449
inclination: 98.0906°
perigee height: 541 km
apogee height: 576 km
right ascension of ascending node: 281.0185°
argument of perigee: 60.4608°
revolutions per day: 15.02658317
mean anomaly at epoch: 299.9148°
orbit number at epoch: 80361

The dashed part of the orbit path shows where the satellite is in the earth's shadow,  

DLR